FENGYUN 1C DEB, 36995

Orbit data source: Space-Track

FENGYUN 1C DEB, 36995 is space debris in SSO originally from a launch on Mon, 10 May 1999 UTC launched from the Taiyaun Space Center, China (TSC). Fengyun 1C debris stems from the Chinese weather satellite Fengyun-1C, which was intentionally destroyed by a Chinese anti-satellite missile in 2007. This event dramatically increased the amount of space debris, with thousands of trackable fragments posing hazards to satellites and human spaceflight. The Fengyun 1C debris cloud has become a focal point in discussions about space sustainability and the need for international regulations to prevent the creation of new debris.

Loading next visibility...
Identifier
36995, 1999-025ECB
Orbit
SSO
Country
Flag of CNCN / PRC
Related business
Manufacturer
Unknown
Mission
Spacecraft
Bus & Motor
Unknown
Mass
Unknown
Launch date (UTC)
1999-05-10 (27 years ago)
Launch vehicle
Unknown
Launch site
Taiyaun Space Center, China (TSC)
Object type
Payload
Rocket body
Debris
Shape & HBR
Unknown shape, 0.1 m
Radar Cross Section
Small (<0.1 m²)

Expand to show TLE details & history
Last TLE update: 1 week ago

TLE from 1 week ago
0 FENGYUN 1C DEB
1 36995U 99025ECB 26246.84160025  .00000178  00000-0  13441-3 0  9995
2 36995  98.3059 108.8280 0038206 277.2248  82.4579 14.04922005672799
Epoch: 2026-09-03T20:11Z
TLE epoch observation values (Epoch: 2026-09-03T20:11:54.261Z)
Latitude
-0.00001°
Longitude
-177.12207°
Altitude
876.172 km
Speed
7.416 km/s
True Right ascension
07h 15m 18s
True Declination
0° 00' 00"
Sunlit
Object was in daylight at epoch
Visualization orbit readout
Latitude
Unknown
Longitude
Unknown
Altitude
Unknown
Speed
Unknown
Apparent Right ascension
Unknown
Apparent Declination
Unknown
Sunlit
N/A
Visualization observer readout
Local Sidereal Time
16:04:21
Azimuth
Unknown
Elevation
Unknown
Doppler factor
Unknown
Orbital elements
Apogee altitude
901.668 km
Perigee altitude
846.253 km
Semi-major axis
7,252.098 km
Eccentricity
0.00382
Inclination
98.3059°
RAAN
108.828°
Arg. of periapsis
277.2248°
True anomaly
82.89219°
Mean anomaly
82.4579°
Eccentric anomaly
82.67502°
Mean motion
3.51437 °/min
Orbital period
102.44 mins
BSTAR
0.00013441
Loading maneuver chart data...
Computing Atmospheric mass density...

Documentation

Showing up to 5 results
|